Location: Dal�� Lhota
(48.7500°N, 14.0167°E)
Time: 12:50:12
(UTC+00:00)

Altair - Visible Passes

Search period start: 02 August 2021 00:00
Search period end: 12 August 2021 00:00
Orbit: 1502 x 1682 km, 47.2° (Epoch: 02 August)

Date Brightness Start Highest point End Pass type
(mag) Time Alt. Az. Time Alt. Az. Time Alt. Az.
02 Aug 7.5 01:36:19 18° WSW 01:43:43 69° SSE 01:52:49 10° E visible
02 Aug 8.1 23:14:06 31° SSE 23:14:59 31° SE 23:22:45 10° E visible
03 Aug 7.5 01:12:05 22° SW 01:18:35 67° SSE 01:27:40 10° E visible
03 Aug 8.2 22:49:49 29° SE 22:49:56 29° SE 22:57:30 10° E visible
04 Aug 7.4 00:47:48 27° SW 00:53:27 64° SSE 01:02:31 10° ENE visible
04 Aug 7.5 02:48:32 10° W 02:57:54 83° S 03:07:05 10° E visible
04 Aug 8.3 22:25:29 27° SE 22:25:29 27° SE 22:32:14 10° E visible
05 Aug 7.5 00:23:27 31° SW 00:28:19 62° SSE 00:37:21 10° ENE visible
05 Aug 7.5 02:23:20 10° W 02:32:44 83° S 02:41:56 10° E visible
05 Aug 8.4 22:01:04 24° ESE 22:01:04 24° ESE 22:06:56 10° E visible
05 Aug 7.5 23:59:02 35° SW 00:03:12 59° SSE 00:12:12 10° ENE visible
06 Aug 7.4 01:58:09 10° W 02:07:33 83° S 02:16:46 10° E visible
06 Aug 8.5 21:36:33 22° ESE 21:36:33 22° ESE 21:41:37 10° E visible
06 Aug 7.5 23:34:30 38° SSW 23:38:05 57° SSE 23:47:03 10° ENE visible
07 Aug 7.4 01:32:57 10° W 01:42:24 82° S 01:51:37 10° E visible
07 Aug 8.6 21:11:54 20° ESE 21:11:54 20° ESE 21:16:16 10° E visible
07 Aug 7.5 23:09:50 40° SSW 23:12:58 54° SSE 23:21:53 10° ENE visible
08 Aug 7.4 01:07:45 10° W 01:17:14 81° S 01:26:27 10° E visible
08 Aug 7.5 03:12:30 10° W 03:21:46 71° SSW 03:30:52 10° ESE visible
08 Aug 8.7 20:46:59 18° ESE 20:46:59 18° ESE 20:50:51 10° E visible
08 Aug 7.5 22:44:54 40° SSW 22:47:51 51° SSE 22:56:43 10° ENE visible
09 Aug 7.3 00:42:49 11° WSW 00:52:04 81° S 01:01:18 10° E visible
09 Aug 7.4 02:47:19 10° W 02:56:38 74° SSW 03:05:45 10° ESE visible
09 Aug 8.7 20:21:37 17° ESE 20:21:37 17° ESE 20:25:23 10° E visible
09 Aug 7.6 22:19:28 37° SSW 22:22:44 49° SSE 22:31:34 10° ENE visible
10 Aug 7.3 00:17:22 10° WSW 00:26:54 79° S 00:36:08 10° E visible
10 Aug 7.4 02:22:08 10° W 02:31:29 75° SSW 02:40:38 10° ESE visible
10 Aug 8.6 19:49:32 10° SSE 19:54:44 16° SE 19:59:50 10° E visible
10 Aug 7.6 21:48:34 10° SW 21:57:38 46° SE 22:06:23 10° ENE visible
10 Aug 7.3 23:52:10 10° WSW 00:01:44 78° SSE 00:11:00 10° E visible
11 Aug 7.4 01:56:56 10° W 02:06:19 77° SSW 02:15:30 10° ESE visible
11 Aug 8.7 19:25:12 10° SSE 19:29:43 14° SE 19:34:10 10° E visible
11 Aug 7.7 21:23:33 10° SSW 21:32:32 44° SE 21:41:13 10° ENE visible
11 Aug 7.3 23:26:59 10° WSW 23:36:34 77° SSE 23:45:51 10° E visible
